This is the latest recevied weather packets stored in our database for station/object YO8RIX. If no packets are shown the sender has not sent any weather packets the latest 10 day(s).
| Time | Temp. | Humidity | Pressure | Rain* | Wind** | Luminosity | Snow |
|---|---|---|---|---|---|---|---|
| 1777598725 | 2.22° C | 65% | 1027.2 hPa | 0 mm | - | 0 W/m² | - |
| 1777595727 | 2.22° C | 70% | 1027.3 hPa | 0 mm | - | 0 W/m² | - |
| 1777594519 | 2.22° C | 68% | 1027.1 hPa | 0 mm | - | 0 W/m² | - |
| 1777593976 | 2.22° C | 69% | 1027.1 hPa | 0 mm | - | 0 W/m² | - |
| 1777592728 | 2.78° C | 67% | 1027.3 hPa | 0 mm | - | 0 W/m² | - |
| 1777590936 | 2.78° C | 65% | 1027.5 hPa | 0 mm | - | 0 W/m² | - |
| 1777590333 | 3.33° C | 66% | 1027.5 hPa | 0 mm | - | 0 W/m² | - |
| 1777589124 | 3.89° C | 62% | 1027.6 hPa | 0 mm | - | 0 W/m² | - |
| 1777581334 | 5.56° C | 53% | 1027.9 hPa | 0 mm | - | 0 W/m² | - |
| 1777578335 | 6.11° C | 53% | 1027.9 hPa | 0 mm | - | 0 W/m² | - |
| 1777576524 | 6.11° C | 50% | 1027.8 hPa | 0 mm | - | 0 W/m² | - |
| 1777572921 | 7.22° C | 46% | 1027.5 hPa | 0 mm | - | 0 W/m² | - |
| 1777568735 | 8.33° C | 42% | 1027 hPa | 0 mm | - | 8 W/m² | - |
| 1777565151 | 9.44° C | 39% | 1026.5 hPa | 0 mm | - | 52 W/m² | - |
| 1777560925 | 10° C | 38% | 1026.4 hPa | 0 mm | - | 96 W/m² | - |
| 1777559717 | 10.56° C | 36% | 1026.5 hPa | 0 mm | - | 180 W/m² | - |
| 1777559133 | 10° C | 38% | 1026.5 hPa | 0 mm | - | 149 W/m² | - |
| 1777556718 | 10° C | 38% | 1026.6 hPa | 0 mm | - | 147 W/m² | - |
| 1777554342 | 10° C | 38% | 1026.8 hPa | 0 mm | - | 392 W/m² | - |
| 1777553141 | 10° C | 39% | 1027 hPa | 0 mm | - | 331 W/m² | - |
| 1777551928 | 10° C | 38% | 1027.2 hPa | 0 mm | - | 391 W/m² | - |
| 1777545930 | 10° C | 38% | 1027.7 hPa | 0 mm | - | 309 W/m² | - |
| 1777545326 | 9.44° C | 39% | 1027.7 hPa | 0 mm | - | 551 W/m² | - |
| 1777542327 | 9.44° C | 40% | 1027.8 hPa | 0 mm | - | 322 W/m² | - |
| 1777541724 | 8.89° C | 41% | 1027.9 hPa | 0 mm | - | 339 W/m² | - |
* Rain latest hour (hover to see other rain measurements)
** Current wind speed in m/s (hover to see current wind gust speed)